Probability
0 13 61 68 55 61 65 68 68 74 68 71 61 68 71 71 74 71 71 65 71 71 65 71 68 65 65 65 65 68 68 55 58 48 48 55 55 55 55 48 48 39 58
3 19 58 65 71 65 65 74 74 74 68 77 74 71 71 71 68 65 71 68 71 68 58 61 61 65 61 71 65 68 61 55 45 48 45 42 58 58 52 45 35 39 61
3 19 42 68 65 68 74 77 84 84 77 71 74 71 71 71 68 68 71 68 68 58 65 58 58 58 61 71 68 61 52 52 48 48 48 26 39 55 52 52 48 48 58
3 13 29 65 71 68 84 84 81 81 84 74 71 77 71 71 71 65 65 65 58 52 55 58 58 58 61 65 48 55 55 48 61 35 16 13 26 52 52 55 61 65 61
3 13 32 58 68 71 77 84 84 81 81 81 77 81 77 74 74 65 55 65 61 52 48 52 58 48 48 58 48 45 42 45 39 13 6 10 26 52 52 45 55 52 55
10 16 35 52 71 71 77 84 81 77 77 74 77 65 68 65 65 58 55 58 61 48 55 52 55 55 55 48 42 42 39 35 19 6 6 10 19 45 48 35 45 48 52
3 16 35 52 68 77 77 81 77 74 74 71 77 74 68 68 71 68 55 55 58 58 48 52 55 52 61 55 58 55 48 29 16 10 3 6 13 35 39 32 52 48 52
6 13 35 45 71 74 74 81 74 74 74 71 68 74 74 71 74 65 55 55 55 55 52 45 52 55 61 58 55 45 35 29 16 6 3 10 16 35 42 42 45 55 48
6 13 23 32 42 52 65 68 74 68 61 68 65 65 68 61 61 65 61 65 55 48 52 42 48 45 55 58 48 42 39 32 10 3 3 3 19 39 39 42 52 52 45
6 10 16 16 26 32 39 55 65 71 61 61 52 55 58 52 48 55 61 68 65 52 48 39 45 52 55 55 52 45 42 35 13 3 0 10 26 29 32 39 45 39 42
3 3 3 6 6 13 19 35 39 45 45 42 39 55 35 16 10 32 32 55 52 52 45 48 55 58 55 48 45 35 39 10 6 3 3 13 29 35 26 35 35 42 42
3 3 3 3 3 6 16 13 16 19 16 16 16 16 13 6 3 10 29 42 52 52 45 45 52 45 29 23 26 29 16 10 10 10 13 23 35 35 35 35 32 35 35
3 3 3 3 3 3 3 6 10 10 10 10 10 10 6 3 3 3 3 10 10 10 6 6 13 13 16 13 6 3 0 3 6 6 13 26 39 35 35 32 32 32 26
0 0 0 3 3 3 3 3 6 6 3 3 6 3 3 3 3 0 0 0 0 0 0 3 0 6 6 6 10 3 3 3 6 6 13 19 45 39 29 29 32 29 29
0 0 0 0 0 0 0 0 3 3 3 3 3 3 3 3 0 0 3 3 3 3 3 0 0 0 0 0 0 3 0 3 6 6 3 13 42 45 35 29 29 29 26
0 0 0 0 0 0 0 0 0 0 0 0 0 0 0 3 0 0 3 0 3 3 0 0 0 0 0 0 0 0 0 0 3 6 3 6 19 35 39 32 32 32 29
0 0 0 0 0 0 0 0 3 0 0 0 0 0 0 0 3 3 3 3 3 3 0 0 0 0 0 0 0 0 0 0 6 3 3 3 10 23 29 32 23 29 35
0 0 0 3 3 0 0 0 3 0 0 0 0 3 3 3 3 3 3 3 3 3 0 3 0 0 0 0 0 0 0 3 3 3 3 6 6 13 19 26 35 39 39
0 0 0 3 3 0 0 0 0 0 3 6 3 3 6 6 6 3 3 3 3 3 0 3 3 0 0 0 3 10 6 6 6 6 6 10 10 10 13 13 26 35 42
0 0 0 3 3 0 0 0 0 3 3 3 3 6 6 6 6 6 3 3 3 3 6 6 3 0 0 3 6 6 3 3 10 6 6 10 10 10 10 6 16 13 16
0 0 0 0 3 0 0 0 0 3 6 0 3 6 10 6 6 10 10 6 3 3 10 6 3 3 6 3 6 6 3 0 3 3 3 3 6 3 3 3 6 10 16
0 0 0 0 0 3 3 0 0 0 6 3 3 6 10 10 13 16 13 10 10 6 10 10 3 3 6 10 10 6 3 3 0 0 3 10 10 10 13 10 10 10 6
0 0 0 0 0 3 3 0 10 6 6 6 6 10 10 6 13 16 13 10 6 10 10 13 10 0 16 10 10 6 3 3 3 3 0 3 6 3 3 3 10 6 3
6 3 0 0 3 3 3 3 10 13 13 13 10 10 10 10 13 13 10 6 10 6 10 10 16 13 6 16 6 6 3 6 3 3 6 3 3 3 3 3 3 6 10
3 3 0 3 3 3 3 6 6 10 13 10 3 6 6 13 13 13 10 10 10 10 10 10 10 10 16 16 13 6 3 3 6 6 0 3 3 3 3 3 3 3 6
6 6 3 6 3 3 10 6 3 6 10 10 10 10 10 16 16 13 6 6 13 6 3 3 3 13 13 10 13 10 3 3 10 3 3 3 3 3 3 0 3 3 3
Height
5876 5875 5875 5875 5874 5874 5874 5874 5874 5874 5874 5874 5874 5873 5873 5874 5874 5873 5873 5873 5873 5873 5873 5873 5874 5875 5875 5875 5875 5876 5876 5876 5877 5877 5877 5878 5878 5878 5879 5879 5880 5881 5882
5877 5876 5876 5875 5875 5875 5875 5874 5874 5874 5874 5874 5875 5874 5874 5874 5874 5874 5874 5874 5874 5874 5874 5874 5875 5875 5875 5875 5876 5876 5876 5877 5877 5877 5877 5877 5878 5878 5878 5878 5879 5880 5881
5878 5877 5876 5876 5876 5875 5875 5875 5875 5875 5875 5875 5875 5875 5875 5875 5875 5875 5874 5875 5874 5874 5875 5875 5875 5876 5876 5876 5876 5876 5877 5877 5877 5877 5877 5877 5877 5877 5876 5877 5878 5880 5881
5878 5878 5877 5877 5876 5876 5876 5876 5875 5875 5875 5875 5875 5876 5875 5875 5876 5876 5875 5875 5875 5875 5876 5876 5876 5876 5877 5877 5877 5877 5877 5877 5877 5878 5877 5877 5877 5876 5874 5874 5876 5879 5881
5879 5879 5878 5878 5877 5877 5876 5876 5876 5876 5876 5875 5876 5876 5876 5876 5876 5876 5876 5876 5876 5877 5877 5877 5877 5877 5877 5877 5877 5877 5877 5877 5877 5877 5877 5877 5876 5875 5874 5874 5876 5879 5881
5881 5880 5879 5878 5878 5877 5877 5877 5877 5876 5876 5876 5876 5876 5876 5877 5877 5876 5877 5877 5877 5877 5878 5878 5878 5878 5878 5878 5878 5878 5878 5878 5878 5877 5877 5877 5876 5876 5875 5876 5878 5879 5881
5881 5881 5880 5879 5878 5878 5878 5878 5878 5877 5877 5877 5877 5877 5877 5877 5877 5877 5877 5878 5878 5878 5878 5879 5879 5878 5879 5879 5879 5879 5878 5878 5878 5878 5877 5877 5877 5877 5877 5878 5878 5880 5881
5882 5881 5881 5880 5879 5879 5879 5879 5878 5878 5878 5878 5878 5878 5878 5878 5878 5878 5878 5878 5878 5879 5879 5879 5879 5879 5879 5879 5879 5879 5878 5878 5878 5877 5877 5877 5877 5877 5877 5878 5879 5879 5880
5883 5882 5882 5881 5880 5880 5880 5879 5879 5879 5879 5878 5878 5878 5878 5878 5879 5879 5879 5879 5879 5879 5879 5879 5879 5879 5879 5879 5879 5879 5878 5878 5878 5878 5877 5877 5877 5877 5877 5878 5878 5879 5879
5884 5883 5883 5882 5882 5881 5881 5880 5880 5879 5879 5879 5879 5879 5879 5879 5879 5879 5879 5879 5879 5879 5879 5880 5880 5880 5880 5880 5879 5879 5879 5878 5878 5878 5877 5877 5877 5877 5877 5878 5878 5878 5878
5885 5884 5884 5883 5883 5882 5882 5881 5881 5881 5880 5880 5879 5879 5879 5879 5879 5879 5880 5879 5879 5879 5879 5880 5880 5880 5880 5880 5879 5879 5879 5878 5878 5878 5878 5877 5877 5877 5877 5877 5877 5877 5877
5887 5886 5885 5884 5883 5883 5883 5882 5882 5881 5881 5880 5880 5880 5880 5879 5880 5880 5880 5879 5879 5879 5880 5880 5880 5880 5880 5879 5879 5879 5879 5879 5878 5878 5878 5877 5877 5876 5876 5876 5877 5877 5877
5888 5887 5886 5885 5884 5884 5883 5883 5882 5882 5881 5881 5881 5880 5880 5880 5880 5880 5880 5880 5879 5880 5880 5880 5880 5880 5880 5879 5879 5879 5879 5879 5878 5878 5878 5877 5876 5876 5876 5876 5876 5877 5877
5889 5888 5887 5886 5885 5885 5884 5883 5883 5882 5882 5881 5881 5881 5880 5880 5880 5880 5880 5880 5880 5880 5880 5880 5880 5880 5880 5879 5879 5879 5879 5878 5878 5878 5878 5877 5876 5876 5876 5876 5876 5877 5877
5890 5889 5888 5887 5886 5886 5885 5884 5883 5883 5882 5882 5881 5881 5880 5880 5880 5880 5880 5880 5880 5880 5880 5880 5880 5880 5880 5879 5879 5878 5878 5878 5878 5877 5877 5876 5876 5876 5876 5875 5876 5876 5877
5891 5890 5888 5887 5887 5886 5885 5885 5884 5883 5883 5882 5881 5881 5880 5880 5879 5879 5879 5880 5880 5880 5880 5880 5880 5880 5879 5879 5879 5878 5878 5878 5877 5877 5877 5876 5876 5875 5875 5875 5876 5876 5877
5892 5891 5889 5888 5887 5887 5886 5885 5885 5884 5883 5882 5882 5881 5880 5880 5879 5879 5879 5879 5879 5879 5879 5880 5879 5879 5879 5879 5878 5878 5877 5877 5877 5876 5876 5875 5875 5875 5875 5875 5875 5876 5876
5893 5892 5890 5889 5889 5888 5887 5886 5885 5885 5884 5883 5882 5881 5880 5880 5879 5879 5879 5879 5879 5879 5879 5879 5879 5879 5879 5878 5878 5877 5877 5876 5876 5876 5875 5875 5875 5874 5874 5874 5874 5875 5875
5894 5893 5892 5891 5890 5889 5888 5887 5886 5885 5884 5883 5882 5881 5880 5880 5879 5879 5879 5879 5879 5879 5879 5879 5879 5878 5878 5877 5877 5876 5876 5875 5875 5875 5874 5874 5874 5873 5873 5873 5873 5874 5874
5896 5895 5894 5893 5891 5890 5889 5888 5887 5886 5885 5883 5882 5881 5880 5880 5879 5879 5878 5878 5878 5878 5878 5878 5878 5877 5877 5876 5876 5875 5875 5874 5874 5874 5873 5873 5873 5872 5872 5872 5872 5872 5872
5897 5896 5895 5894 5893 5891 5890 5889 5888 5886 5885 5884 5882 5881 5880 5880 5879 5878 5877 5877 5877 5877 5877 5877 5876 5876 5876 5875 5875 5874 5874 5873 5873 5872 5872 5872 5872 5871 5871 5871 5870 5871 5871
5898 5897 5896 5895 5894 5892 5891 5890 5888 5887 5886 5884 5882 5881 5880 5879 5878 5877 5877 5876 5876 5875 5875 5875 5875 5875 5874 5874 5874 5873 5872 5873 5872 5871 5871 5870 5870 5870 5869 5869 5869 5869 5869
5899 5898 5897 5895 5894 5893 5891 5890 5888 5887 5886 5884 5883 5881 5880 5879 5878 5877 5876 5875 5875 5874 5874 5874 5874 5873 5873 5872 5872 5872 5871 5871 5871 5871 5870 5869 5869 5868 5868 5867 5868 5868 5868
5899 5898 5897 5896 5894 5893 5891 5890 5889 5887 5885 5884 5882 5881 5879 5878 5877 5876 5875 5874 5873 5873 5873 5872 5872 5871 5871 5871 5870 5870 5870 5870 5870 5869 5869 5868 5868 5867 5867 5866 5866 5866 5866
5900 5898 5897 5896 5895 5893 5892 5890 5889 5887 5885 5884 5882 5880 5879 5877 5876 5875 5874 5873 5872 5872 5871 5871 5870 5870 5870 5869 5869 5869 5868 5868 5868 5867 5868 5867 5867 5866 5866 5865 5865 5864 5864
5900 5898 5897 5896 5895 5893 5892 5890 5889 5887 5885 5883 5882 5880 5878 5877 5875 5874 5872 5871 5871 5870 5870 5869 5869 5868 5868 5868 5867 5867 5866 5866 5866 5866 5866 5865 5865 5865 5864 5863 5863 5862 5862
Wind_Speed
8 8 7 6 6 6 6 6 6 5 5 5 5 5 5 5 5 5 5 5 5 5 4 4 3 2 2 2 2 2 2 3 3 3 3 4 3 3 4 5 5 6 6
9 7 6 6 6 6 6 7 7 6 5 5 5 5 5 5 5 4 4 5 5 4 3 3 3 2 2 2 2 2 1 2 2 3 4 4 3 3 5 5 5 5 6
9 8 7 6 6 6 6 7 7 6 6 5 5 5 4 4 4 4 3 4 4 4 4 3 3 3 2 2 2 1 1 2 2 2 3 3 3 3 5 7 6 5 5
8 8 8 8 8 7 6 7 7 6 6 5 5 5 5 4 4 4 3 3 4 4 5 4 3 3 2 2 2 1 1 1 1 1 1 2 2 2 4 6 7 6 5
8 8 8 8 7 7 7 7 6 6 6 6 6 5 5 4 4 3 3 3 4 4 4 5 4 4 3 2 2 2 1 0 1 1 1 1 2 2 3 5 7 6 6
7 8 8 7 7 7 7 7 6 6 6 6 6 6 5 5 4 4 4 4 4 4 4 4 4 3 3 3 3 2 1 0 0 0 1 1 2 3 4 5 5 6 5
7 7 8 7 7 7 7 7 6 6 6 6 6 6 6 5 5 5 5 4 4 4 3 4 3 3 3 3 3 3 2 1 1 1 1 2 2 3 4 4 5 5 5
7 7 7 7 6 7 7 7 6 6 6 5 5 6 5 5 5 4 4 4 4 4 3 3 3 3 2 2 2 2 2 1 1 1 1 2 3 3 3 4 5 5 5
7 7 7 6 6 7 7 7 6 6 6 5 5 5 5 5 5 4 3 3 3 3 3 3 2 2 2 2 2 1 1 1 1 1 1 2 3 4 4 3 4 4 5
8 7 7 7 7 7 6 6 6 6 6 5 4 4 4 4 4 3 2 2 2 2 2 2 1 1 1 1 1 2 1 1 1 2 2 0 2 4 4 4 3 4 5
8 7 7 7 7 7 7 6 6 6 6 5 5 4 3 3 2 2 2 2 2 2 2 2 2 1 1 1 1 2 1 1 1 1 2 1 1 3 3 4 5 4 5
9 8 8 8 8 7 7 6 6 5 5 5 4 5 4 3 2 2 2 2 2 2 1 1 1 1 1 1 1 1 1 0 1 1 1 2 1 2 3 4 4 4 4
9 8 8 8 7 7 7 7 6 5 5 5 4 3 3 3 2 2 1 1 1 1 1 0 1 1 1 1 1 1 1 1 1 2 1 1 1 2 3 3 3 3 3
10 10 9 8 8 7 7 7 6 5 5 5 5 3 2 3 2 1 2 2 2 1 1 0 1 2 2 1 1 2 2 1 2 2 2 1 1 2 2 3 3 3 3
11 11 10 8 8 7 7 6 6 5 4 4 4 4 3 2 2 2 2 1 1 1 1 0 1 2 2 1 2 2 2 2 2 2 2 2 2 2 3 3 4 3 4
11 11 10 8 8 8 7 7 7 6 5 4 4 4 3 2 1 2 2 1 1 1 0 1 1 2 2 2 3 3 2 3 3 2 3 3 3 3 3 3 4 3 4
11 11 10 10 9 9 8 8 7 6 5 5 4 4 3 2 1 0 0 0 1 1 1 1 1 2 2 2 2 2 3 4 3 3 3 3 3 3 3 4 4 5 5
12 11 11 10 10 9 8 8 7 7 6 5 5 5 4 3 1 1 1 1 1 1 1 1 2 3 3 3 4 4 4 3 3 3 3 3 2 3 3 4 4 4 5
11 11 11 10 10 10 9 8 8 7 6 6 5 5 4 3 2 1 1 1 1 2 2 2 2 3 4 4 4 4 4 4 4 3 4 3 3 3 3 4 4 5 5
10 10 10 10 10 10 9 8 8 7 7 6 6 5 5 4 3 3 2 2 2 3 3 3 3 4 4 4 5 5 5 4 4 4 4 4 4 4 5 5 5 5 6
9 9 9 10 10 10 9 9 9 8 8 7 7 6 5 5 5 5 3 2 3 4 4 4 4 5 5 6 6 5 5 4 5 5 5 5 5 5 6 6 5 6 6
9 9 9 9 9 10 9 9 8 8 8 8 8 6 5 6 5 5 4 3 4 4 4 5 5 6 6 6 6 6 5 4 5 5 6 6 6 7 7 6 7 7 7
8 8 8 8 8 9 9 9 9 9 8 8 8 7 7 6 6 6 6 5 5 5 5 5 6 7 6 6 6 6 5 5 5 6 6 6 6 6 6 6 7 6 7
8 8 8 7 8 9 9 9 9 9 9 9 9 8 8 7 7 6 6 5 6 6 6 6 6 6 7 6 6 6 6 6 7 7 6 6 6 6 6 7 7 8 8
8 7 8 8 7 8 9 10 10 10 10 10 10 9 8 7 7 7 7 6 5 6 6 6 6 7 7 7 7 7 8 8 8 7 6 6 6 7 7 8 8 8 9
7 7 7 8 8 8 9 10 10 10 10 10 10 10 9 8 8 7 6 6 6 6 7 7 7 6 7 8 8 9 9 8 9 8 8 7 7 7 7 8 8 8 8
Wind_Direction
62 70 73 75 73 73 72 75 74 72 68 65 62 72 74 77 77 84 92 85 84 83 87 91 82 95 87 72 99 115 128 132 150 171 182 192 197 197 199 204 206 203 200
56 61 68 66 66 70 69 73 75 74 72 72 71 76 74 77 77 89 97 94 90 82 78 82 77 79 77 72 98 105 103 128 133 166 173 181 182 194 208 203 197 203 201
53 56 64 66 68 72 68 68 70 69 70 75 77 76 75 79 76 72 81 89 89 84 84 78 69 61 66 76 81 93 106 140 120 164 170 178 188 208 215 206 200 195 193
50 55 60 64 67 68 67 67 69 70 69 78 86 77 76 79 77 76 75 79 79 75 75 69 67 58 65 74 69 57 81 111 127 154 169 174 188 203 207 197 192 184 185
51 59 59 58 61 60 61 63 68 68 67 77 80 79 79 77 73 67 67 78 84 82 71 67 71 60 60 59 76 72 58 306 175 160 181 178 172 167 170 176 179 181 183
51 58 59 56 59 57 56 60 67 70 70 73 78 79 81 77 73 75 77 85 90 91 79 73 68 65 64 59 75 72 57 315 152 285 187 150 167 163 162 169 176 184 189
55 58 58 51 59 60 56 62 70 73 73 68 75 77 80 81 81 80 80 81 89 93 92 75 69 60 66 69 74 73 67 56 85 191 174 153 164 164 169 175 181 189 192
56 55 57 58 58 64 63 64 73 77 74 72 77 78 77 80 77 81 85 85 91 88 86 73 69 55 67 70 73 79 54 49 51 121 163 158 158 158 164 179 193 197 201
55 58 61 61 63 67 65 67 76 73 69 74 80 71 68 70 76 83 87 80 77 85 83 67 64 52 49 58 61 59 45 35 60 53 93 171 181 186 192 202 210 211 203
57 58 58 57 62 62 59 63 65 67 65 66 75 69 68 72 74 81 86 62 67 92 84 72 61 42 39 45 36 36 48 75 50 30 27 238 190 179 190 200 205 210 206
51 54 55 56 59 56 52 54 62 65 66 61 66 64 66 68 72 66 70 72 90 92 80 69 49 37 31 16 360 1 5 68 71 52 32 358 271 196 195 198 199 196 194
55 56 60 59 59 59 54 55 60 63 62 58 58 60 67 76 77 68 63 77 107 117 95 66 32 23 5 347 353 357 18 30 56 21 4 340 310 218 212 214 208 198 193
49 50 55 58 59 61 60 59 60 57 58 53 44 45 54 62 67 74 72 78 97 104 84 8 354 349 346 349 346 342 359 346 342 331 338 326 288 231 225 222 212 211 206
50 49 50 56 56 57 56 55 56 50 46 44 34 32 44 55 63 66 65 67 79 95 126 173 326 343 335 317 299 292 288 325 325 326 326 279 238 242 239 221 219 225 226
48 46 46 50 53 53 50 47 49 45 40 42 34 23 23 44 71 98 105 65 51 103 100 47 313 340 335 317 297 292 273 271 302 319 317 290 282 263 251 232 220 233 231
44 41 41 51 56 54 49 50 50 43 36 32 27 21 17 9 50 105 113 89 121 115 16 308 315 332 333 324 307 296 279 279 281 300 313 297 282 275 264 247 226 234 233
44 42 46 53 55 53 51 51 46 39 33 27 20 14 10 358 347 337 120 123 150 200 274 296 311 310 332 331 324 307 290 281 276 283 291 293 280 268 264 256 236 239 240
44 45 50 54 54 50 46 44 38 33 30 24 19 9 3 0 1 28 357 265 244 263 269 307 304 298 307 310 305 293 282 270 273 277 280 286 278 277 266 249 245 240 241
44 48 52 54 51 45 42 41 37 31 27 24 17 11 10 13 3 331 328 284 261 265 261 284 287 290 298 301 298 296 277 266 272 277 279 282 282 279 261 242 243 248 244
46 51 53 51 48 44 41 37 33 27 23 22 13 11 18 12 359 328 306 290 278 267 270 288 291 289 298 300 300 294 282 271 270 278 278 283 284 278 263 250 245 245 251
44 48 49 48 45 40 37 33 30 25 20 14 9 6 4 1 357 339 332 303 284 275 278 278 280 284 288 289 287 286 277 272 273 277 276 273 276 274 268 259 249 247 250
42 43 41 45 41 34 30 27 24 18 12 8 5 360 355 352 350 349 335 316 302 292 284 281 277 280 278 281 288 285 270 272 279 283 275 276 281 272 268 261 261 251 248
35 37 37 36 33 30 27 23 19 14 7 3 0 355 343 342 339 333 318 303 298 297 294 285 280 278 275 283 283 283 276 268 281 290 287 282 279 276 271 270 261 257 254
27 28 27 25 23 20 17 14 12 9 4 1 354 349 343 335 332 327 318 311 303 296 292 284 282 278 277 276 279 274 276 278 280 290 285 286 280 278 277 275 275 269 267
19 20 22 20 15 12 9 7 4 1 359 357 353 348 342 335 331 323 317 317 308 297 293 285 282 275 277 279 277 276 277 280 280 280 282 281 280 283 283 281 279 276 277
11 13 14 8 7 2 1 360 357 355 353 350 347 343 339 333 327 326 317 309 305 298 291 287 288 281 282 280 278 280 278 278 278 278 278 278 280 280 279 279 282 282 283